Preview of NWS' New Version of Forecast
This preview is not operational and should not be used for support decisions.

Regional Weather Roundup (RWR)

Issued by National Weather Service (NWS)

                            
000
ASUS44 KJAN 190910
RWRMS 

MISSISSIPPI HOURLY WEATHER ROUNDUP
NATIONAL WEATHER SERVICE JACKSON MS
400 AM CDT TUE MAR 19 2019

NOTE: "FAIR: INDICATES FEW OR NO CLOUDS BELOW 12,000 FEET WITH NO
SIGNIFICANT WEATHER AND/OR OBSTRUCTIONS TO VISIBILITY.

MSZ001>002-007>008-010>013-018>021-025>028-034>036-191000-
NORTHWEST MISSISSIPPI
  
CITY           SKY/WX    TMP DP  RH WIND       PRES   REMARKS
BATESVILLE     PTSUNNY   32  32 100 CALM      30.33F                  
CLARKSDALE     CLOUDY    39  32  75 CALM      30.34S                  
CLEVELAND      FAIR      41  33  74 E6        30.32S                  
GREENWOOD      FAIR      42  28  57 VRB3      30.32F                  
GREENVILLE     FAIR      45  32  60 E5        30.31S                  
OLIVE BRANCH     N/A     37  25  60 CALM      30.34F                  
OXFORD         FAIR      37  23  56 E6        30.34F WCI  33          
TUNICA           N/A     37  32  81 NE7       30.35F WCI  32          
WINONA         FAIR      36  32  85 CALM      30.32F                  
$$

MSZ003>006-009-014>017-022>024-029>033-037>039-191000-
NORTHEAST MISSISSIPPI
  
CITY           SKY/WX    TMP DP  RH WIND       PRES   REMARKS
ABERDEEN       FAIR      30  30 100 CALM      30.35F                  
COLUMBUS AFB   FAIR      35  30  84 CALM      30.33F                  
CORINTH        FAIR      32  30  93 CALM      30.34F                  
GOLDN TRIANGLE FAIR      39  29  67 N5        30.33F                  
STARKVILLE     FAIR      34  32  93 CALM      30.35S                  
TUPELO         FAIR      34  27  75 NE3       30.34F                  
$$

MSZ040-058-191000-
CENTRAL MISSISSIPPI
  
CITY           SKY/WX    TMP DP  RH WIND       PRES   REMARKS
JACKSON INTL   FAIR      45  30  55 E5        30.30S                  
JACKSON HAWKNS FAIR      48  31  51 E6        30.30F                  
MADISON        FAIR      43  30  61 CALM      30.29F                  
MERIDIAN KEY   FAIR      39  34  82 N3        30.30F                  
MERIDIAN NAS   FAIR      40  32  73 CALM      30.31F                  
RAYMOND          N/A     39  39 100 CALM      30.29F                  
VICKSBURG VKS  MOSUNNY   50  30  46 E6        30.29F                  
$$

MSZ059>079-191000-
SOUTH MISSISSIPPI
  
CITY           SKY/WX    TMP DP  RH WIND       PRES   REMARKS
HATTIESBURG    FAIR      42  38  85 CALM      30.29F                  
LAUREL         SUNNY     46  32  57 NE6       30.29S                  
MCCOMB         FAIR      48  33  56 NE3       30.27S                  
NATCHEZ        FAIR      49  35  58 E7        30.28F                  
PINE BELT      FAIR      45  33  63 N6        30.29S                  
$$

MSZ080>082-191000-
COASTAL MISSISSIPPI
  
CITY           SKY/WX    TMP DP  RH WIND       PRES   REMARKS
BILOXI         FAIR      51  37  60 NE10      30.24S                  
PASCAGOULA     FAIR      52  33  48 NE7       30.24F                  
GULFPORT       FAIR      51  36  56 NE6       30.24F                  
$$

LAZ007>009-015>016-023>026-191000-
NORTHEAST LOUISIANA
  
CITY           SKY/WX    TMP DP  RH WIND       PRES   REMARKS
BASTROP        FAIR      44  35  71 CALM      30.30F                  
TALLULAH/VBURG FAIR      49  33  54 E12       30.30F                  
VIDALIA        FAIR      49  36  62 NE5       30.27S                  
$$